{"data":{"norad_id":48957,"epoch":"2026-09-20T00:15:37.188576Z","epoch_age_seconds":56667,"freshness":"FRESH","line1":"1 48957U 21059CG  26263.01084709  .00053289  00000+0  31442-3 0  9991","line2":"2 48957  97.6613 112.2257 0003037 346.3492  13.7691 15.78016354292764","mean_motion":15.78016354,"eccentricity":0.0003037,"inclination_deg":97.6613,"raan_deg":112.2257,"arg_perigee_deg":346.3492,"mean_anomaly_deg":13.7691,"bstar":0.00031442,"rev_number":29276,"period_min":91.253807119923,"perigee_km":334.02236905656,"apogee_km":338.10057320793,"semimajor_km":6714.1984711322,"source":"CELESTRAK","updated_at":"2026-09-20T09:00:47.450117Z"}}